GW2328 Weather Reports


Display with metric or nautical units.
time (UTC)temp
F
wind
direction
speed
MPH
gust
MPH
rain 1hr
in
rain 24hr
in
rain mn
in
humidity
%
barometer
mb
20260509185755 77 138 3.0 3.0 0.00 0.00 0.00 51 1013.2
20260509185251 77 140 0.0 2.0 0.00 0.00 0.00 52 1013.5
20260509184749 77 144 1.0 3.0 0.00 0.00 0.00 52 1013.3
20260509184247 77 220 1.0 2.0 0.00 0.00 0.00 52 1013.5
20260509183743 76 153 1.0 2.0 0.00 0.00 0.00 53 1013.5
20260509183238 77 112 0.0 3.0 0.00 0.00 0.00 52 1013.4
20260509182734 76 167 2.0 3.0 0.00 0.00 0.00 53 1013.6
20260509182232 75 141 0.0 1.0 0.00 0.00 0.00 53 1013.5
20260509181729 75 200 3.0 5.0 0.00 0.00 0.00 53 1013.7
20260509181226 75 257 1.0 3.0 0.00 0.00 0.00 55 1013.4
20260509180723 75 135 0.0 2.0 0.00 0.00 0.00 55 1013.5
20260509180220 75 214 2.0 3.0 0.00 0.00 0.00 55 1013.6
20260509175716 75 173 2.0 2.0 0.00 0.00 0.00 55 1013.5
20260509175212 75 161 1.0 2.0 0.00 0.00 0.00 57 1013.8
20260509174708 74 139 1.0 1.0 0.00 0.00 0.00 57 1013.6
20260509174204 74 145 2.0 3.0 0.00 0.00 0.00 57 1013.5
20260509173700 75 187 3.0 6.0 0.00 0.00 0.00 56 1013.6
20260509173155 75 138 2.0 3.0 0.00 0.00 0.00 56 1013.7
20260509172652 74 144 1.0 1.0 0.00 0.00 0.00 57 1013.6
20260509172148 73 136 0.0 1.0 0.00 0.00 0.00 58 1013.6
20260509171644 73 121 0.0 2.0 0.00 0.00 0.00 58 1013.5
20260509171140 73 195 3.0 3.0 0.00 0.00 0.00 57 1013.8
20260509170638 74 137 1.0 3.0 0.00 0.00 0.00 58 1013.7
20260509170133 73 170 2.0 5.0 0.00 0.00 0.00 58 1013.7
20260509165631 73 166 4.0 6.0 0.00 0.00 0.00 59 1013.5
20260509165127 71 137 1.0 1.0 0.00 0.00 0.00 60 1013.7
20260509164624 72 177 3.0 5.0 0.00 0.00 0.00 60 1013.9
20260509164120 71 148 1.0 2.0 0.00 0.00 0.00 61 1013.7
20260509163617 71 142 0.0 0.0 0.00 0.00 0.00 60 1013.6
20260509163113 72 139 0.0 3.0 0.00 0.00 0.00 60 1013.9
20260509162610 71 140 0.0 1.0 0.00 0.00 0.00 60 1013.6
20260509162105 72 147 0.0 0.0 0.00 0.00 0.00 59 1013.6
20260509161557 74 144 2.0 3.0 0.00 0.00 0.00 59 1013.5
20260509161057 72 146 1.0 1.0 0.00 0.00 0.00 61 1013.6
20260509160553 72 160 0.0 1.0 0.00 0.00 0.00 61 1013.6
20260509160048 73 190 3.0 3.0 0.00 0.00 0.00 62 1013.5
20260509155545 72 132 0.0 1.0 0.00 0.00 0.00 63 1013.6
20260509155041 71 151 1.0 2.0 0.00 0.00 0.00 64 1013.4
20260509154537 71 138 0.0 1.0 0.00 0.00 0.00 64 1013.7
20260509154035 71 159 2.0 2.0 0.00 0.00 0.00 65 1013.6
20260509153532 71 211 3.0 3.0 0.00 0.00 0.00 65 1013.5
20260509153028 71 149 4.0 5.0 0.00 0.00 0.00 66 1013.5
20260509152524 70 140 0.0 1.0 0.00 0.00 0.00 68 1013.5
20260509152022 69 147 0.0 1.0 0.00 0.00 0.00 69 1013.4
20260509151518 68 128 1.0 2.0 0.00 0.00 0.00 70 1013.6
20260509151016 68 158 1.0 3.0 0.00 0.00 0.00 70 1013.7
20260509150513 68 150 1.0 3.0 0.00 0.00 0.00 72 1013.6
20260509150012 68 182 2.0 2.0 0.00 0.00 0.00 74 1013.6
20260509145507 66 141 0.0 0.0 0.00 0.00 0.00 76 1013.4
20260509145002 65 158 0.0 1.0 0.00 0.00 0.00 77 1013.4
20260509144459 65 145 0.0 3.0 0.00 0.00 0.00 78 1013.4
20260509143956 64 159 0.0 2.0 0.00 0.00 0.00 79 1013.6
20260509143453 64 118 1.0 2.0 0.00 0.00 0.00 80 1013.5
20260509142950 63 163 1.0 2.0 0.00 0.00 0.00 80 1013.5
20260509142446 63 165 1.0 3.0 0.00 0.00 0.00 81 1013.5
20260509141942 63 145 1.0 3.0 0.00 0.00 0.00 82 1013.5
20260509141438 63 144 0.0 1.0 0.00 0.00 0.00 83 1013.5
20260509140935 62 134 0.0 1.0 0.00 0.00 0.00 85 1013.5
20260509140432 62 127 0.0 1.0 0.00 0.00 0.00 85 1013.5
20260509135930 62 144 1.0 1.0 0.00 0.00 0.00 86 1013.3
20260509135427 62 142 0.0 0.0 0.00 0.00 0.00 87 1013.6
20260509134925 62 117 1.0 1.0 0.00 0.00 0.00 88 1013.6
20260509134422 61 150 0.0 1.0 0.00 0.00 0.00 89 1013.2
20260509133919 61 142 0.0 0.0 0.00 0.00 0.00 90 1013.4
20260509133415 61 144 0.0 0.0 0.00 0.00 0.00 90 1013.3
20260509132914 60 141 0.0 1.0 0.00 0.00 0.00 91 1013.3
20260509132412 60 155 1.0 1.0 0.00 0.00 0.00 91 1013.3
20260509131908 60 151 0.0 1.0 0.00 0.00 0.00 92 1013.3
20260509131406 60 164 0.0 1.0 0.00 0.00 0.00 92 1013.3
20260509130902 59 142 0.0 0.0 0.00 0.00 0.00 93 1013.4
20260509130357 58 157 1.0 1.0 0.00 0.00 0.00 93 1013.2
20260509125855 58 140 0.0 0.0 0.00 0.00 0.00 93 1013.3
20260509125351 58 154 0.0 1.0 0.00 0.00 0.00 93 1013.2
20260509124847 57 139 0.0 1.0 0.00 0.00 0.00 94 1013.0
20260509124344 57 152 0.0 1.0 0.00 0.00 0.00 94 1013.2
20260509123842 57 155 0.0 0.0 0.00 0.00 0.00 94 1013.3
20260509123339 57 146 0.0 0.0 0.00 0.00 0.00 94 1013.3
20260509122835 57 147 0.0 0.0 0.00 0.00 0.00 94 1013.3
20260509122332 57 147 0.0 0.0 0.00 0.00 0.00 94 1013.3
20260509121829 57 157 0.0 0.0 0.00 0.00 0.00 94 1013.4
20260509121326 57 155 0.0 0.0 0.00 0.00 0.00 94 1013.3
20260509120824 56 151 0.0 0.0 0.00 0.00 0.00 94 1013.4
20260509120322 56 151 0.0 0.0 0.00 0.00 0.00 94 1013.3
20260509115820 56 151 0.0 0.0 0.00 0.00 0.00 94 1013.1
20260509115316 56 151 0.0 0.0 0.00 0.00 0.00 94 1012.8
20260509114814 56 143 0.0 0.0 0.00 0.00 0.00 94 1012.7
20260509114313 55 143 0.0 0.0 0.00 0.00 0.00 94 1012.7
20260509113812 55 142 0.0 0.0 0.00 0.00 0.00 94 1012.7
20260509113308 55 142 0.0 0.0 0.00 0.00 0.00 94 1012.4
20260509112805 55 142 0.0 0.0 0.00 0.00 0.00 93 1012.6
20260509112306 55 142 0.0 0.0 0.00 0.00 0.00 93 1012.4
20260509111759 55 142 0.0 0.0 0.00 0.00 0.00 93 1012.5
20260509111256 55 142 0.0 0.0 0.00 0.00 0.00 93 1012.7
20260509110753 55 142 0.0 0.0 0.00 0.00 0.00 93 1012.5
20260509110250 55 142 0.0 0.0 0.00 0.00 0.00 93 1012.6
20260509105748 55 142 0.0 0.0 0.00 0.00 0.00 93 1012.5
20260509105245 55 142 0.0 0.0 0.00 0.00 0.00 93 1012.5
20260509104742 55 142 0.0 0.0 0.00 0.00 0.00 93 1012.7
20260509104239 55 142 0.0 0.0 0.00 0.00 0.00 92 1012.7
20260509103737 55 142 0.0 0.0 0.00 0.00 0.00 92 1012.5
20260509103234 55 142 0.0 0.0 0.00 0.00 0.00 92 1012.6
20260509102732 55 142 0.0 0.0 0.00 0.00 0.00 92 1012.7
20260509102229 55 142 0.0 1.0 0.00 0.00 0.00 92 1012.7
20260509101725 55 142 0.0 0.0 0.00 0.00 0.00 92 1012.6
20260509101222 55 142 0.0 0.0 0.00 0.00 0.00 92 1012.6
20260509100719 55 142 0.0 0.0 0.00 0.00 0.00 92 1013.0
20260509100216 55 142 0.0 0.0 0.00 0.00 0.00 91 1012.7
20260509095713 55 142 0.0 0.0 0.00 0.00 0.00 91 1012.9
20260509095210 56 142 0.0 0.0 0.00 0.00 0.00 91 1012.9
20260509094707 56 142 0.0 0.0 0.00 0.00 0.00 91 1012.8
20260509094204 56 142 0.0 0.0 0.00 0.00 0.00 91 1012.6
20260509093702 56 142 0.0 0.0 0.00 0.00 0.00 91 1012.7
20260509093159 56 142 0.0 0.0 0.00 0.00 0.00 90 1012.8
20260509092657 56 142 0.0 0.0 0.00 0.00 0.00 90 1012.9
20260509092155 56 142 0.0 0.0 0.00 0.00 0.00 90 1012.8
20260509091653 56 142 0.0 0.0 0.00 0.00 0.00 90 1012.9
20260509091148 56 142 0.0 0.0 0.00 0.00 0.00 90 1013.2
20260509090646 56 142 0.0 0.0 0.00 0.00 0.00 90 1013.1
20260509090138 56 142 0.0 0.0 0.00 0.00 0.00 90 1013.1
20260509085635 56 142 0.0 0.0 0.00 0.00 0.00 89 1013.1
20260509085131 56 142 0.0 0.0 0.00 0.00 0.00 89 1012.8
20260509084629 56 142 0.0 0.0 0.00 0.00 0.00 89 1013.0
20260509084126 56 142 0.0 0.0 0.00 0.00 0.00 89 1012.9
20260509083623 56 142 0.0 0.0 0.00 0.00 0.00 88 1013.0
20260509083119 56 142 0.0 0.0 0.00 0.00 0.00 88 1013.0
20260509082617 57 142 0.0 0.0 0.00 0.00 0.00 88 1013.3
20260509082113 57 142 0.0 0.0 0.00 0.00 0.00 88 1013.2
20260509081611 57 142 0.0 0.0 0.00 0.00 0.00 88 1013.4
20260509081108 57 142 0.0 0.0 0.00 0.00 0.00 88 1013.4
20260509080606 57 142 0.0 0.0 0.00 0.00 0.00 88 1013.6
20260509075600 57 141 0.0 0.0 0.00 0.00 0.00 87 1013.2
20260509075053 57 150 0.0 0.0 0.00 0.00 0.00 87 1013.3
20260509074549 57 150 0.0 0.0 0.00 0.00 0.00 87 1013.1
20260509074046 57 150 0.0 0.0 0.00 0.00 0.00 86 1013.1
20260509073542 57 150 0.0 0.0 0.00 0.00 0.00 86 1012.9
20260509073039 57 150 0.0 0.0 0.00 0.00 0.00 86 1013.1
20260509072535 57 150 0.0 0.0 0.00 0.00 0.00 85 1013.1
20260509072032 57 150 0.0 0.0 0.00 0.00 0.00 85 1013.3
20260509071529 57 142 0.0 0.0 0.00 0.00 0.00 85 1013.4
20260509071027 57 146 0.0 0.0 0.00 0.00 0.00 85 1013.6
20260509070524 57 155 0.0 1.0 0.00 0.00 0.00 84 1013.3
20260509070020 58 145 0.0 1.0 0.00 0.00 0.00 84 1013.4
20260509065515 58 148 0.0 0.0 0.00 0.00 0.00 84 1013.6
20260509065012 58 144 0.0 2.0 0.00 0.00 0.00 84 1013.6
20260509064510 58 137 1.0 1.0 0.00 0.00 0.00 83 1013.7
20260509064008 58 142 1.0 1.0 0.00 0.00 0.00 83 1013.7
20260509063502 58 141 0.0 1.0 0.00 0.00 0.00 82 1013.6
20260509063000 58 179 0.0 1.0 0.00 0.00 0.00 82 1013.6
20260509062457 58 137 0.0 0.0 0.00 0.00 0.00 82 1013.6
20260509061955 58 139 0.0 0.0 0.00 0.00 0.00 81 1013.5
20260509061451 58 147 0.0 0.0 0.00 0.00 0.00 81 1013.7
20260509060949 58 136 0.0 0.0 0.00 0.00 0.00 80 1013.6
20260509060446 58 135 0.0 0.0 0.00 0.00 0.00 80 1013.7
20260509055942 59 136 0.0 0.0 0.00 0.00 0.00 79 1013.6
20260509055437 59 136 0.0 0.0 0.00 0.00 0.00 79 1013.6
20260509054934 59 136 0.0 0.0 0.00 0.00 0.00 78 1013.7
20260509054431 59 136 0.0 0.0 0.00 0.00 0.00 78 1013.6
20260509053929 59 136 0.0 0.0 0.00 0.00 0.00 77 1013.9
20260509053426 59 136 0.0 0.0 0.00 0.00 0.00 77 1013.8
20260509052924 59 136 0.0 0.0 0.00 0.00 0.00 76 1013.6
20260509052421 59 136 0.0 0.0 0.00 0.00 0.00 76 1013.7
20260509051919 59 136 0.0 0.0 0.00 0.00 0.00 75 1013.7
20260509051416 59 146 0.0 0.0 0.00 0.00 0.00 75 1013.7
20260509050913 59 148 1.0 1.0 0.00 0.00 0.00 74 1013.8
20260509050410 59 149 0.0 0.0 0.00 0.00 0.00 74 1013.6
20260509045907 59 149 0.0 0.0 0.00 0.00 0.00 73 1013.6
20260509045404 59 150 0.0 0.0 0.00 0.00 0.00 73 1013.6
20260509044901 59 150 0.0 0.0 0.00 0.00 0.00 73 1013.6
20260509044358 59 150 0.0 0.0 0.00 0.00 0.00 72 1013.5
20260509043855 59 150 0.0 0.0 0.00 0.00 0.00 72 1013.8
20260509043350 59 150 0.0 0.0 0.00 0.00 0.00 71 1013.7
20260509042847 59 150 0.0 0.0 0.00 0.00 0.00 70 1013.6
20260509042343 59 150 0.0 0.0 0.00 0.00 0.00 70 1013.4
20260509041840 59 148 0.0 0.0 0.00 0.00 0.00 69 1013.6
20260509041337 60 148 0.0 0.0 0.00 0.00 0.00 68 1013.7
20260509040835 60 148 0.0 0.0 0.00 0.00 0.00 67 1013.4
20260509040332 60 148 0.0 0.0 0.00 0.00 0.00 66 1013.4
20260509035829 60 148 0.0 0.0 0.00 0.00 0.00 66 1013.3
20260509035327 60 148 0.0 0.0 0.00 0.00 0.00 65 1013.6
20260509034822 60 148 0.0 0.0 0.00 0.00 0.00 64 1013.6
20260509034321 60 148 0.0 0.0 0.00 0.00 0.00 64 1013.5
20260509033817 61 148 0.0 0.0 0.00 0.00 0.00 63 1013.6
20260509033314 61 148 0.0 0.0 0.00 0.00 0.00 62 1013.6
20260509032811 61 148 0.0 0.0 0.00 0.00 0.00 61 1013.7
20260509032308 61 148 0.0 0.0 0.00 0.00 0.00 60 1013.7
20260509031806 61 148 0.0 0.0 0.00 0.00 0.00 59 1013.7
20260509031303 62 148 0.0 0.0 0.00 0.00 0.00 58 1013.8
20260509030801 62 148 0.0 0.0 0.00 0.00 0.00 58 1013.8
20260509030259 62 148 0.0 0.0 0.00 0.00 0.00 57 1013.8
20260509025755 62 148 0.0 0.0 0.00 0.00 0.00 57 1013.8
20260509025250 62 148 0.0 0.0 0.00 0.00 0.00 57 1013.9
20260509024746 62 148 0.0 0.0 0.00 0.00 0.00 57 1013.8
20260509024243 63 148 0.0 0.0 0.00 0.00 0.00 57 1014.0
20260509023740 63 148 0.0 0.0 0.00 0.00 0.00 56 1014.1
20260509023237 63 148 0.0 0.0 0.00 0.00 0.00 56 1013.9
20260509022733 64 148 0.0 0.0 0.00 0.00 0.00 56 1013.7
20260509022231 64 148 0.0 0.0 0.00 0.00 0.00 55 1014.0
20260509021727 64 148 0.0 0.0 0.00 0.00 0.00 54 1013.7
20260509021225 64 147 0.0 0.0 0.00 0.00 0.00 54 1013.8
20260509020723 64 147 0.0 0.0 0.00 0.00 0.00 53 1014.1
20260509020219 64 147 0.0 0.0 0.00 0.00 0.00 53 1013.9
20260509015718 64 147 0.0 0.0 0.00 0.00 0.00 53 1014.2
20260509015216 64 147 0.0 0.0 0.00 0.00 0.00 53 1013.9
20260509014712 64 147 0.0 0.0 0.00 0.00 0.00 52 1014.0
20260509014209 65 147 0.0 0.0 0.00 0.00 0.00 52 1014.0
20260509013706 65 148 0.0 1.0 0.00 0.00 0.00 51 1013.8
20260509013201 65 156 0.0 0.0 0.00 0.00 0.00 51 1013.7
20260509012658 65 156 0.0 1.0 0.00 0.00 0.00 50 1013.8
20260509012154 65 157 0.0 1.0 0.00 0.00 0.00 50 1013.7
20260509011652 65 152 0.0 0.0 0.00 0.00 0.00 50 1013.7
20260509011149 65 158 0.0 0.0 0.00 0.00 0.00 50 1013.6
20260509010647 66 147 0.0 0.0 0.00 0.00 0.00 50 1013.7
20260509010143 66 153 0.0 0.0 0.00 0.00 0.00 49 1013.7
20260509005641 66 152 0.0 0.0 0.00 0.00 0.00 49 1013.7
20260509005137 66 154 0.0 1.0 0.00 0.00 0.00 49 1013.9
20260509004633 66 148 0.0 2.0 0.00 0.00 0.00 48 1013.8
20260509004130 66 147 0.0 1.0 0.00 0.00 0.00 48 1014.0
20260509003629 66 148 0.0 1.0 0.00 0.00 0.00 48 1013.8
20260509003126 67 154 0.0 0.0 0.00 0.00 0.00 47 1014.0
20260509002623 67 144 0.0 1.0 0.00 0.00 0.00 47 1013.8
20260509002120 68 156 1.0 1.0 0.00 0.00 0.00 47 1013.7
20260509001618 68 143 2.0 3.0 0.00 0.00 0.00 46 1013.9
20260509001113 68 150 0.0 1.0 0.00 0.00 0.00 46 1014.0
20260509000612 68 153 0.0 1.0 0.00 0.00 0.00 46 1013.8
20260509000108 68 171 1.0 2.0 0.00 0.00 0.00 45 1013.7
20260508235606 69 153 1.0 5.0 0.00 0.00 0.00 46 1013.7
20260508235102 69 178 1.0 2.0 0.00 0.00 0.00 46 1013.6
20260508234559 69 139 0.0 0.0 0.00 0.00 0.00 45 1013.9
20260508234055 69 139 0.0 2.0 0.00 0.00 0.00 45 1013.7
20260508233555 69 141 0.0 1.0 0.00 0.00 0.00 44 1014.0
20260508233052 70 150 0.0 1.0 0.00 0.00 0.00 44 1013.9
20260508232549 70 146 2.0 3.0 0.00 0.00 0.00 44 1013.9
20260508232046 70 185 1.0 2.0 0.00 0.00 0.00 43 1014.0
20260508231544 70 288 3.0 6.0 0.00 0.00 0.00 43 1014.0
20260508231041 70 179 2.0 3.0 0.00 0.00 0.00 43 1013.9
20260508230537 70 182 0.0 3.0 0.00 0.00 0.00 42 1013.9
20260508230034 70 166 2.0 6.0 0.00 0.00 0.00 42 1013.9
20260508225531 71 167 2.0 6.0 0.00 0.00 0.00 42 1014.0
20260508225028 71 170 0.0 6.0 0.00 0.00 0.00 43 1013.8
20260508224526 71 189 1.0 6.0 0.00 0.00 0.00 43 1014.0
20260508224023 71 146 0.0 2.0 0.00 0.00 0.00 42 1013.8
20260508223521 71 159 1.0 2.0 0.00 0.00 0.00 42 1013.8
20260508223018 71 171 2.0 3.0 0.00 0.00 0.00 41 1013.7
20260508222515 71 131 1.0 3.0 0.00 0.00 0.00 41 1013.9
20260508222012 72 141 0.0 2.0 0.00 0.00 0.00 40 1013.8
20260508221508 72 173 2.0 3.0 0.00 0.00 0.00 41 1013.8
20260508221004 72 184 1.0 6.0 0.00 0.00 0.00 40 1013.8
20260508220501 72 174 2.0 6.0 0.00 0.00 0.00 40 1013.5
20260508215956 72 165 1.0 3.0 0.00 0.00 0.00 40 1013.8
20260508215454 72 144 1.0 5.0 0.00 0.00 0.00 40 1013.7
20260508214950 73 135 4.0 5.0 0.00 0.00 0.00 39 1013.6
20260508214448 73 205 3.0 3.0 0.00 0.00 0.00 39 1013.8
20260508213944 73 190 2.0 5.0 0.00 0.00 0.00 39 1013.5
20260508213442 73 169 1.0 3.0 0.00 0.00 0.00 39 1013.7
20260508212937 74 177 0.0 3.0 0.00 0.00 0.00 40 1013.6
20260508212434 74 170 0.0 2.0 0.00 0.00 0.00 39 1013.8
20260508211930 74 242 2.0 3.0 0.00 0.00 0.00 40 1013.8
20260508211425 72 181 2.0 2.0 0.00 0.00 0.00 40 1014.0
20260508210923 72 168 1.0 3.0 0.00 0.00 0.00 39 1014.0
20260508210420 72 188 0.0 3.0 0.00 0.00 0.00 38 1014.2
20260508205916 72 171 3.0 5.0 0.00 0.00 0.00 37 1014.2
20260508205413 74 149 1.0 3.0 0.00 0.00 0.00 37 1014.1
20260508204909 75 114 1.0 5.0 0.00 0.00 0.00 36 1014.4
20260508204407 76 205 4.0 6.0 0.00 0.00 0.00 37 1014.4
20260508203902 76 258 3.0 3.0 0.00 0.00 0.00 37 1014.4
20260508203358 75 172 0.0 3.0 0.00 0.00 0.00 37 1014.4
20260508202854 75 128 2.0 2.0 0.00 0.00 0.00 37 1014.5
20260508202352 75 133 2.0 5.0 0.00 0.00 0.00 37 1014.8
20260508201849 74 150 1.0 5.0 0.00 0.00 0.00 38 1014.8
20260508201345 74 151 1.0 5.0 0.00 0.00 0.00 37 1014.9
20260508200842 74 175 1.0 7.0 0.00 0.00 0.00 36 1015.0
20260508200339 75 130 3.0 6.0 0.00 0.00 0.00 37 1015.0
20260508195834 75 120 1.0 6.0 0.00 0.00 0.00 37 1015.3
20260508195331 74 174 2.0 5.0 0.00 0.00 0.00 38 1015.4
20260508194827 74 139 1.0 7.0 0.00 0.00 0.00 37 1015.5
20260508194325 74 147 0.0 5.0 0.00 0.00 0.00 39 1015.6
20260508193821 74 147 3.0 9.0 0.00 0.00 0.00 37 1015.5
20260508193318 74 116 3.0 6.0 0.00 0.00 0.00 37 1015.5
20260508192809 75 77 3.0 3.0 0.00 0.00 0.00 38 1015.6
20260508192306 74 139 1.0 2.0 0.00 0.00 0.00 39 1015.7
20260508191803 72 139 3.0 5.0 0.00 0.00 0.00 38 1015.8
20260508191300 72 183 2.0 6.0 0.00 0.00 0.00 37 1016.2
20260508190758 73 153 4.0 7.0 0.00 0.00 0.00 38 1016.0
20260508190253 73 181 2.0 3.0 0.00 0.00 0.00 38 1016.2